Flag for Switzerland Weather past 2 weeks in Riehen, Basel-Stadt, Switzerland

Now
58 °F

Overcast.


Feels Like: 57 °F
Forecast: 41 / 48 °F
Wind: 9 mph from Southwest

Location: Bale-Mulhouse

Current Time: Oct 21, 2014 at 7:44:41 AM

Latest Report: Oct 21, 2014 at 7:00 AM


Visibility: 28 mi

Pressure: 29.98 "Hg

Humidity: 93%

Dew point: 56 °F

Location of RiehenLocation

Historic Weather in Riehen — Graph

°F

Riehen temperature yesterday

Maximum temperature yesterday: 72 °F (at 3:00 PM)
Minimum temperature yesterday: 53 °F (at 8:00 AM)
Average temperature yesterday: 62 °F

Past Weeks' High & Low Weather Summary

 TemperatureHumidityPressure
High76 °F (Oct 19, 4:00 PM)99% (Oct 12, 7:00 AM)30.22 "Hg (Oct 12, 7:00 AM)
Low47 °F (Oct 18, 1:00 AM)50% (Oct 19, 4:00 PM)29.74 "Hg (Oct 15, 5:00 PM)
Average60 °F87%29.93 "Hg
* Reported Oct 6 6:00 AM — Oct 21 6:00 AM, Riehen, Weather by CustomWeather, © 2014

Note: Actual official high and low records may vary slightly from our data, if they occured in-between our weather recording intervals... More about our weather records

Advertising

Riehen weather history for previous 24 hours

 ConditionsComfort  
Time TempWeatherWind HumidityBarometerVisibility
6:00 AM
Oct 21
59 °FOvercast.7 mph91%29.98 "Hg9 mi
5:00 AM59 °FOvercast.7 mph91%30.00 "Hg12 mi
4:00 AM60 °FOvercast.7 mph92%30.01 "Hg37 mi
3:00 AM60 °FOvercast.5 mph94%30.03 "Hg31 mi
2:00 AM60 °FOvercast.2 mph95%30.03 "Hg31 mi
1:00 AM60 °FOvercast.No wind95%30.04 "Hg10 mi
12:00 AM61 °FOvercast.3 mph94%30.03 "Hg11 mi
11:00 PM
Oct 20
62 °FLight rain. Overcast.3 mph90%30.07 "Hg4 mi
10:00 PM63 °FLight rain. Low clouds.6 mph95%30.05 "Hg1 mi
9:00 PM63 °FOvercast.3 mph93%30.04 "Hg7 mi
8:00 PM65 °FLight rain. Overcast.1 mph85%30.05 "Hg11 mi
7:00 PM66 °FOvercast.2 mph82%30.03 "Hg19 mi
6:00 PM69 °FOvercast.6 mph75%30.03 "Hg25 mi
5:00 PM71 °FOvercast.9 mph71%30.04 "Hg25 mi
4:00 PM72 °FOvercast.8 mph66%30.05 "Hg25 mi
3:00 PM72 °FOvercast.7 mph66%30.06 "Hg25 mi
2:00 PM72 °FOvercast.7 mph67%30.08 "Hg22 mi
1:00 PM72 °FPartly sunny.7 mph65%30.11 "Hg19 mi
12:00 PM69 °FScattered clouds.5 mph72%30.14 "Hg16 mi
11:00 AM64 °FScattered clouds.7 mph84%30.16 "Hg12 mi
10:00 AM58 °FPartly sunny.6 mph91%30.18 "Hg12 mi
9:00 AM56 °FPartly sunny.2 mph96%30.18 "Hg12 mi
8:00 AM53 °FPartly sunny.2 mph95%30.18 "Hg12 mi
7:00 AM54 °FOvercast.3 mph95%30.17 "Hg11 mi
Weather by CustomWeather, © 2014

See weather overviewHow to use our weather pages